| time (UTC) | temp C | wind direction | speed KPH | gust KPH | rain 1hr cm | rain 24hr cm | rain mn cm | humidity % | barometer mb |
| 20260506051004 | 8 | 227 | 4.8 | 14.5 | 0.03 | 0.15 | 0.03 | 78 | 1337.3 |
| 20260506050515 | 8 | 227 | 4.8 | 11.3 | 0.03 | 0.15 | 0.03 | 67 | 1007.3 |
| 20260506050504 | 8 | 226 | 3.2 | 11.3 | 0.03 | 0.15 | 0.03 | 78 | 1337.2 |
| 20260506045015 | 8 | 248 | 4.8 | 11.3 | 0.05 | 0.15 | 0.03 | 69 | 1007.5 |
| 20260506045004 | 8 | 245 | 4.8 | 11.3 | 0.05 | 0.15 | 0.03 | 79 | 1337.4 |
| 20260506044504 | 8 | 230 | 3.2 | 11.3 | 0.05 | 0.15 | 0.03 | 79 | 1337.5 |
| 20260506044015 | 8 | 188 | 4.8 | 12.9 | 0.05 | 0.15 | 0.03 | 69 | 1007.5 |
| 20260506044004 | 8 | 187 | 4.8 | 11.3 | 0.05 | 0.15 | 0.03 | 79 | 1337.4 |
| 20260506043514 | 8 | 178 | 6.4 | 14.5 | 0.05 | 0.15 | 0.00 | 69 | 1007.4 |
| 20260506043504 | 8 | 177 | 8.0 | 12.9 | 0.05 | 0.15 | 0.00 | 79 | 1337.2 |
| 20260506043015 | 8 | 175 | 6.4 | 14.5 | 0.05 | 0.15 | 0.00 | 69 | 1007.4 |
| 20260506043005 | 8 | 175 | 8.0 | 17.7 | 0.05 | 0.15 | 0.00 | 79 | 1337.4 |
| 20260506042525 | 8 | 182 | 6.4 | 14.5 | 0.05 | 0.15 | 0.00 | 79 | 1337.4 |
| 20260506042514 | 8 | 183 | 6.4 | 14.5 | 0.05 | 0.15 | 0.00 | 69 | 1007.5 |
| 20260506042015 | 8 | 188 | 8.0 | 12.9 | 0.05 | 0.15 | 0.00 | 69 | 1007.5 |
| 20260506042004 | 8 | 187 | 8.0 | 12.9 | 0.05 | 0.15 | 0.00 | 79 | 1337.5 |
| 20260506041515 | 8 | 190 | 8.0 | 12.9 | 0.05 | 0.15 | 0.00 | 70 | 1007.7 |
| 20260506041504 | 8 | 189 | 8.0 | 12.9 | 0.05 | 0.15 | 0.00 | 80 | 1337.8 |
| 20260506041025 | 8 | 191 | 8.0 | 12.9 | 0.05 | 0.15 | 0.00 | 80 | 1337.8 |
| 20260506041014 | 8 | 192 | 8.0 | 14.5 | 0.05 | 0.15 | 0.00 | 70 | 1007.7 |
| 20260506040525 | 8 | 192 | 8.0 | 14.5 | 0.05 | 0.15 | 0.00 | 80 | 1337.8 |
| 20260506040515 | 8 | 192 | 8.0 | 14.5 | 0.05 | 0.15 | 0.00 | 70 | 1007.7 |
| 20260506040017 | 8 | 192 | 8.0 | 14.5 | 0.05 | 0.15 | 0.00 | 70 | 1007.7 |
| 20260506040005 | 8 | 192 | 8.0 | 14.5 | 0.05 | 0.15 | 0.00 | 80 | 1337.7 |
| 20260506035515 | 8 | 198 | 8.0 | 14.5 | 0.03 | 0.13 | 0.13 | 70 | 1007.8 |
| 20260506035504 | 8 | 198 | 8.0 | 17.7 | 0.03 | 0.13 | 0.13 | 80 | 1337.8 |
| 20260506035014 | 8 | 208 | 8.0 | 12.9 | 0.03 | 0.13 | 0.13 | 70 | 1007.9 |
| 20260506035004 | 8 | 208 | 8.0 | 12.9 | 0.03 | 0.13 | 0.13 | 81 | 1338.0 |
| 20260506034515 | 8 | 217 | 6.4 | 11.3 | 0.03 | 0.13 | 0.13 | 71 | 1007.9 |
| 20260506034504 | 8 | 216 | 6.4 | 11.3 | 0.03 | 0.13 | 0.13 | 81 | 1338.0 |
| 20260506034014 | 8 | 219 | 4.8 | 11.3 | 0.00 | 0.10 | 0.10 | 71 | 1007.9 |
| 20260506034004 | 8 | 219 | 4.8 | 11.3 | 0.00 | 0.10 | 0.10 | 81 | 1337.9 |
| 20260506033515 | 8 | 217 | 1.6 | 8.0 | 0.00 | 0.10 | 0.10 | 71 | 1008.0 |
| 20260506033503 | 8 | 217 | 1.6 | 8.0 | 0.00 | 0.10 | 0.10 | 81 | 1338.0 |
| 20260506033005 | 8 | 216 | 3.2 | 6.4 | 0.00 | 0.10 | 0.10 | 81 | 1338.3 |
| 20260506032515 | 8 | 213 | 4.8 | 12.9 | 0.00 | 0.10 | 0.10 | 71 | 1008.1 |
| 20260506032503 | 8 | 212 | 4.8 | 12.9 | 0.00 | 0.10 | 0.10 | 81 | 1338.3 |
| 20260506032025 | 8 | 211 | 4.8 | 11.3 | 0.00 | 0.10 | 0.10 | 81 | 1338.1 |
| 20260506032015 | 8 | 212 | 4.8 | 11.3 | 0.00 | 0.10 | 0.10 | 71 | 1008.0 |
| 20260506031514 | 8 | 217 | 4.8 | 11.3 | 0.00 | 0.10 | 0.10 | 71 | 1008.2 |
| 20260506031503 | 8 | 216 | 3.2 | 11.3 | 0.00 | 0.10 | 0.10 | 81 | 1338.4 |
| 20260506031014 | 8 | 221 | 4.8 | 11.3 | 0.00 | 0.10 | 0.10 | 71 | 1008.1 |
| 20260506031004 | 8 | 221 | 3.2 | 8.0 | 0.00 | 0.10 | 0.10 | 81 | 1338.3 |
| 20260506030514 | 8 | 222 | 4.8 | 11.3 | 0.00 | 0.10 | 0.10 | 71 | 1008.1 |
| 20260506030504 | 9 | 221 | 4.8 | 11.3 | 0.00 | 0.10 | 0.10 | 81 | 1338.2 |
| 20260506030015 | 9 | 223 | 4.8 | 11.3 | 0.00 | 0.10 | 0.10 | 71 | 1008.0 |
| 20260506030004 | 9 | 222 | 4.8 | 8.0 | 0.00 | 0.10 | 0.10 | 81 | 1338.1 |
| 20260506025525 | 9 | 212 | 4.8 | 8.0 | 0.00 | 0.10 | 0.10 | 81 | 1338.0 |
| 20260506025514 | 9 | 211 | 4.8 | 11.3 | 0.00 | 0.10 | 0.10 | 71 | 1007.9 |
| 20260506025014 | 9 | 189 | 6.4 | 11.3 | 0.00 | 0.10 | 0.10 | 73 | 1007.8 |
| 20260506025004 | 9 | 188 | 4.8 | 11.3 | 0.00 | 0.10 | 0.10 | 81 | 1337.9 |
| 20260506024514 | 9 | 179 | 6.4 | 12.9 | 0.00 | 0.10 | 0.10 | 73 | 1007.7 |
| 20260506024504 | 9 | 180 | 6.4 | 11.3 | 0.00 | 0.10 | 0.10 | 82 | 1337.7 |
| 20260506024014 | 9 | 178 | 6.4 | 12.9 | 0.00 | 0.10 | 0.10 | 73 | 1007.6 |
| 20260506024004 | 9 | 178 | 6.4 | 14.5 | 0.00 | 0.10 | 0.10 | 82 | 1337.7 |
| 20260506023514 | 9 | 194 | 6.4 | 12.9 | 0.00 | 0.10 | 0.10 | 73 | 1007.7 |
| 20260506023504 | 9 | 194 | 6.4 | 11.3 | 0.00 | 0.10 | 0.10 | 82 | 1337.7 |
| 20260506023015 | 9 | 213 | 6.4 | 12.9 | 0.00 | 0.10 | 0.10 | 73 | 1007.6 |
| 20260506023004 | 9 | 212 | 6.4 | 14.5 | 0.00 | 0.10 | 0.10 | 82 | 1337.6 |
| 20260506022514 | 9 | 203 | 6.4 | 12.9 | 0.00 | 0.10 | 0.10 | 73 | 1007.7 |
| 20260506022504 | 9 | 202 | 8.0 | 11.3 | 0.00 | 0.10 | 0.10 | 82 | 1337.8 |
| 20260506022014 | 9 | 186 | 8.0 | 14.5 | 0.00 | 0.10 | 0.10 | 73 | 1007.7 |
| 20260506022004 | 9 | 185 | 8.0 | 12.9 | 0.00 | 0.10 | 0.10 | 82 | 1337.8 |
| 20260506021514 | 9 | 177 | 8.0 | 14.5 | 0.00 | 0.10 | 0.10 | 74 | 1007.8 |
| 20260506021504 | 9 | 178 | 8.0 | 17.7 | 0.00 | 0.10 | 0.10 | 83 | 1337.8 |
| 20260506021015 | 9 | 165 | 8.0 | 14.5 | 0.00 | 0.10 | 0.10 | 74 | 1007.7 |
| 20260506021004 | 9 | 164 | 9.7 | 14.5 | 0.00 | 0.10 | 0.10 | 83 | 1337.9 |
| 20260506020514 | 9 | 162 | 8.0 | 14.5 | 0.00 | 0.10 | 0.10 | 74 | 1007.7 |
| 20260506020504 | 10 | 162 | 8.0 | 17.7 | 0.00 | 0.10 | 0.10 | 83 | 1337.8 |
| 20260506020014 | 10 | 173 | 6.4 | 14.5 | 0.00 | 0.15 | 0.10 | 75 | 1007.8 |
| 20260506020004 | 10 | 174 | 6.4 | 17.7 | 0.00 | 0.15 | 0.10 | 83 | 1337.8 |
| 20260506015514 | 10 | 178 | 6.4 | 11.3 | 0.00 | 0.15 | 0.10 | 75 | 1007.9 |
| 20260506015504 | 10 | 178 | 6.4 | 11.3 | 0.00 | 0.15 | 0.10 | 84 | 1338.0 |
| 20260506015014 | 10 | 186 | 6.4 | 12.9 | 0.00 | 0.15 | 0.10 | 75 | 1007.8 |
| 20260506015004 | 10 | 185 | 6.4 | 12.9 | 0.00 | 0.15 | 0.10 | 84 | 1337.9 |
| 20260506014514 | 10 | 198 | 6.4 | 20.9 | 0.00 | 0.15 | 0.10 | 75 | 1007.9 |
| 20260506014504 | 10 | 198 | 6.4 | 12.9 | 0.00 | 0.15 | 0.10 | 85 | 1338.0 |
| 20260506014015 | 10 | 213 | 6.4 | 20.9 | 0.00 | 0.15 | 0.10 | 77 | 1007.8 |
| 20260506014003 | 10 | 213 | 4.8 | 19.3 | 0.00 | 0.18 | 0.10 | 85 | 1337.9 |
| 20260506013525 | 10 | 225 | 4.8 | 8.0 | 0.00 | 0.20 | 0.10 | 85 | 1337.7 |
| 20260506013515 | 10 | 225 | 6.4 | 8.0 | 0.00 | 0.20 | 0.10 | 77 | 1007.7 |
| 20260506013004 | 10 | 252 | 4.8 | 8.0 | 0.00 | 0.20 | 0.10 | 85 | 1337.6 |
| 20260506012525 | 10 | 306 | 3.2 | 11.3 | 0.00 | 0.20 | 0.10 | 85 | 1337.7 |
| 20260506012515 | 10 | 307 | 4.8 | 11.3 | 0.00 | 0.20 | 0.10 | 77 | 1007.7 |
| 20260506012014 | 9 | 342 | 1.6 | 6.4 | 0.00 | 0.20 | 0.10 | 77 | 1007.6 |
| 20260506012004 | 10 | 342 | 1.6 | 6.4 | 0.00 | 0.20 | 0.10 | 85 | 1337.5 |
| 20260506011504 | 10 | 342 | 3.2 | 6.4 | 0.00 | 0.20 | 0.10 | 85 | 1337.4 |
| 20260506011025 | 10 | 342 | 3.2 | 6.4 | 0.00 | 0.20 | 0.10 | 84 | 1337.5 |
| 20260506011015 | 10 | 341 | 4.8 | 6.4 | 0.00 | 0.20 | 0.10 | 75 | 1007.5 |
| 20260506010514 | 10 | 341 | 1.6 | 6.4 | 0.00 | 0.20 | 0.10 | 75 | 1007.4 |
| 20260506010504 | 10 | 342 | 1.6 | 6.4 | 0.00 | 0.20 | 0.10 | 84 | 1337.2 |
| 20260506010015 | 10 | 341 | 1.6 | 6.4 | 0.00 | 0.20 | 0.10 | 75 | 1007.4 |
| 20260506010004 | 10 | 342 | 1.6 | 4.8 | 0.00 | 0.20 | 0.10 | 84 | 1337.2 |
| 20260506005514 | 10 | 341 | 1.6 | 6.4 | 0.00 | 0.20 | 0.10 | 75 | 1007.2 |
| 20260506005504 | 10 | 341 | 1.6 | 6.4 | 0.00 | 0.20 | 0.10 | 84 | 1337.1 |
| 20260506005004 | 10 | 341 | 1.6 | 4.8 | 0.00 | 0.20 | 0.10 | 84 | 1336.8 |
| 20260506004514 | 10 | 341 | 1.6 | 6.4 | 0.00 | 0.20 | 0.10 | 75 | 1007.2 |
| 20260506004504 | 10 | 341 | 1.6 | 6.4 | 0.00 | 0.20 | 0.10 | 84 | 1336.9 |
| 20260506004015 | 10 | 341 | 1.6 | 6.4 | 0.00 | 0.20 | 0.10 | 75 | 1007.1 |
| 20260506004004 | 10 | 341 | 3.2 | 6.4 | 0.00 | 0.20 | 0.10 | 84 | 1336.9 |
| 20260506003514 | 10 | 340 | 1.6 | 6.4 | 0.00 | 0.20 | 0.10 | 75 | 1007.1 |
| 20260506003504 | 10 | 341 | 1.6 | 6.4 | 0.00 | 0.20 | 0.10 | 83 | 1336.8 |
| 20260506003014 | 10 | 340 | 1.6 | 6.4 | 0.00 | 0.20 | 0.10 | 74 | 1007.1 |
| 20260506003003 | 10 | 340 | 3.2 | 6.4 | 0.00 | 0.20 | 0.10 | 83 | 1336.8 |
| 20260506002524 | 10 | 340 | 3.2 | 8.0 | 0.00 | 0.20 | 0.10 | 83 | 1336.6 |
| 20260506002514 | 10 | 339 | 4.8 | 8.0 | 0.00 | 0.20 | 0.10 | 74 | 1006.9 |
| 20260506002014 | 10 | 339 | 1.6 | 8.0 | 0.00 | 0.20 | 0.10 | 74 | 1006.9 |
| 20260506002004 | 10 | 340 | 1.6 | 8.0 | 0.00 | 0.20 | 0.10 | 83 | 1336.5 |
| 20260506001504 | 10 | 0 | 0.0 | 0.0 | 0.00 | 0.20 | 0.10 | 83 | 1336.5 |
| 20260506001014 | 10 | 0 | 0.0 | 0.0 | 0.00 | 0.20 | 0.10 | 74 | 1006.7 |
| 20260506001004 | 10 | 0 | 0.0 | 0.0 | 0.00 | 0.20 | 0.10 | 83 | 1336.5 |
| 20260506000514 | 10 | 0 | 0.0 | 0.0 | 0.00 | 0.20 | 0.10 | 74 | 1006.7 |
| 20260506000504 | 10 | 0 | 0.0 | 0.0 | 0.00 | 0.20 | 0.10 | 83 | 1336.3 |
| 20260506000014 | 10 | 0 | 0.0 | 0.0 | 0.00 | 0.20 | 0.10 | 73 | 1006.8 |
| 20260506000004 | 10 | 0 | 0.0 | 0.0 | 0.00 | 0.20 | 0.10 | 82 | 1336.5 |
| 20260505235503 | 10 | 0 | 0.0 | 0.0 | 0.00 | 0.20 | 0.10 | 82 | 1336.4 |
| 20260505235014 | 10 | 0 | 0.0 | 0.0 | 0.00 | 0.20 | 0.10 | 73 | 1006.8 |
| 20260505235003 | 10 | 0 | 0.0 | 0.0 | 0.00 | 0.20 | 0.10 | 82 | 1336.4 |
| 20260505234504 | 10 | 0 | 0.0 | 0.0 | 0.00 | 0.20 | 0.10 | 82 | 1336.1 |
| 20260505234014 | 10 | 0 | 0.0 | 0.0 | 0.00 | 0.20 | 0.10 | 73 | 1006.6 |
| 20260505234004 | 10 | 0 | 0.0 | 0.0 | 0.00 | 0.20 | 0.10 | 82 | 1336.2 |
| 20260505233525 | 10 | 0 | 0.0 | 0.0 | 0.00 | 0.20 | 0.10 | 82 | 1336.4 |
| 20260505233513 | 10 | 0 | 0.0 | 0.0 | 0.00 | 0.20 | 0.10 | 73 | 1006.7 |
| 20260505233014 | 10 | 0 | 0.0 | 0.0 | 0.00 | 0.20 | 0.10 | 73 | 1006.6 |
| 20260505233004 | 10 | 0 | 0.0 | 0.0 | 0.00 | 0.20 | 0.10 | 81 | 1336.2 |
| 20260505232514 | 10 | 0 | 0.0 | 0.0 | 0.00 | 0.20 | 0.10 | 71 | 1006.7 |
| 20260505232503 | 10 | 0 | 0.0 | 0.0 | 0.00 | 0.20 | 0.10 | 81 | 1336.3 |
| 20260505232025 | 10 | 0 | 0.0 | 0.0 | 0.00 | 0.20 | 0.10 | 81 | 1336.3 |
| 20260505232014 | 10 | 0 | 0.0 | 0.0 | 0.00 | 0.20 | 0.10 | 71 | 1006.8 |
| 20260505231514 | 10 | 0 | 0.0 | 4.8 | 0.00 | 0.20 | 0.10 | 71 | 1006.8 |
| 20260505231504 | 10 | 336 | 0.0 | 0.0 | 0.00 | 0.20 | 0.10 | 81 | 1336.5 |
| 20260505231014 | 10 | 0 | 0.0 | 4.8 | 0.00 | 0.20 | 0.10 | 71 | 1006.8 |
| 20260505231004 | 10 | 336 | 0.0 | 4.8 | 0.00 | 0.20 | 0.10 | 81 | 1336.4 |
| 20260505230525 | 10 | 336 | 0.0 | 4.8 | 0.00 | 0.20 | 0.10 | 81 | 1336.5 |
| 20260505230514 | 10 | 0 | 0.0 | 4.8 | 0.00 | 0.20 | 0.10 | 71 | 1006.9 |
| 20260505230014 | 10 | 335 | 1.6 | 8.0 | 0.00 | 0.20 | 0.10 | 71 | 1006.9 |
| 20260505230004 | 10 | 336 | 1.6 | 0.0 | 0.00 | 0.20 | 0.10 | 81 | 1336.5 |
| 20260505225525 | 10 | 336 | 1.6 | 8.0 | 0.00 | 0.20 | 0.10 | 81 | 1336.7 |
| 20260505225514 | 10 | 336 | 1.6 | 8.0 | 0.00 | 0.20 | 0.10 | 71 | 1007.0 |
| 20260505225004 | 10 | 336 | 1.6 | 4.8 | 0.00 | 0.20 | 0.10 | 81 | 1336.6 |
| 20260505224514 | 10 | 336 | 1.6 | 6.4 | 0.00 | 0.20 | 0.10 | 73 | 1007.0 |
| 20260505224503 | 10 | 336 | 1.6 | 4.8 | 0.00 | 0.20 | 0.10 | 82 | 1336.6 |
| 20260505224004 | 10 | 336 | 1.6 | 6.4 | 0.00 | 0.20 | 0.10 | 81 | 1336.7 |
| 20260505223504 | 10 | 336 | 0.0 | 4.8 | 0.00 | 0.20 | 0.10 | 82 | 1336.5 |
| 20260505223016 | 10 | 0 | 0.0 | 4.8 | 0.00 | 0.20 | 0.10 | 73 | 1007.0 |
| 20260505223003 | 10 | 336 | 0.0 | 4.8 | 0.00 | 0.20 | 0.10 | 82 | 1336.6 |
| 20260505222514 | 10 | 0 | 0.0 | 4.8 | 0.00 | 0.20 | 0.10 | 73 | 1006.9 |
| 20260505222503 | 10 | 336 | 0.0 | 0.0 | 0.00 | 0.20 | 0.10 | 82 | 1336.7 |
| 20260505222014 | 10 | 0 | 0.0 | 4.8 | 0.00 | 0.20 | 0.10 | 73 | 1006.9 |
| 20260505222003 | 10 | 336 | 0.0 | 4.8 | 0.00 | 0.20 | 0.10 | 82 | 1336.5 |
| 20260505221514 | 10 | 0 | 0.0 | 4.8 | 0.00 | 0.20 | 0.10 | 73 | 1006.9 |
| 20260505221503 | 10 | 336 | 0.0 | 4.8 | 0.00 | 0.20 | 0.10 | 82 | 1336.6 |
| 20260505221014 | 10 | 0 | 0.0 | 1.6 | 0.00 | 0.20 | 0.10 | 74 | 1007.0 |
| 20260505221003 | 10 | 336 | 0.0 | 1.6 | 0.00 | 0.20 | 0.10 | 83 | 1336.8 |
| 20260505220513 | 10 | 0 | 0.0 | 6.4 | 0.00 | 0.20 | 0.10 | 74 | 1006.9 |
| 20260505220504 | 10 | 336 | 0.0 | 0.0 | 0.00 | 0.20 | 0.10 | 83 | 1336.7 |
| 20260505220024 | 10 | 336 | 0.0 | 6.4 | 0.00 | 0.20 | 0.10 | 83 | 1336.8 |
| 20260505220014 | 10 | 0 | 0.0 | 6.4 | 0.00 | 0.20 | 0.10 | 74 | 1007.0 |
| 20260505215504 | 10 | 0 | 0.0 | 1.6 | 0.00 | 0.20 | 0.10 | 83 | 1336.8 |
| 20260505215014 | 10 | 0 | 0.0 | 4.8 | 0.00 | 0.20 | 0.10 | 74 | 1007.1 |
| 20260505215003 | 10 | 336 | 0.0 | 0.0 | 0.00 | 0.20 | 0.10 | 83 | 1336.8 |
| 20260505214514 | 10 | 0 | 0.0 | 4.8 | 0.00 | 0.20 | 0.10 | 74 | 1007.0 |
| 20260505214504 | 10 | 336 | 0.0 | 4.8 | 0.00 | 0.20 | 0.10 | 83 | 1336.8 |
| 20260505214014 | 10 | 0 | 0.0 | 4.8 | 0.00 | 0.20 | 0.10 | 74 | 1007.0 |
| 20260505214004 | 10 | 336 | 0.0 | 4.8 | 0.00 | 0.20 | 0.10 | 83 | 1336.8 |
| 20260505213514 | 10 | 0 | 0.0 | 1.6 | 0.00 | 0.20 | 0.10 | 74 | 1007.1 |
| 20260505213503 | 10 | 336 | 0.0 | 0.0 | 0.00 | 0.20 | 0.10 | 83 | 1336.7 |
| 20260505213014 | 10 | 0 | 0.0 | 4.8 | 0.00 | 0.20 | 0.10 | 74 | 1007.2 |
| 20260505213003 | 10 | 336 | 1.6 | 1.6 | 0.00 | 0.20 | 0.10 | 83 | 1336.9 |
| 20260505212503 | 10 | 336 | 1.6 | 6.4 | 0.00 | 0.20 | 0.10 | 83 | 1337.0 |
| 20260505212025 | 10 | 336 | 1.6 | 6.4 | 0.00 | 0.20 | 0.10 | 83 | 1337.0 |
| 20260505212014 | 10 | 0 | 0.0 | 6.4 | 0.00 | 0.20 | 0.10 | 74 | 1007.2 |
| 20260505211513 | 10 | 0 | 0.0 | 4.8 | 0.00 | 0.20 | 0.10 | 74 | 1007.1 |
| 20260505211503 | 10 | 336 | 0.0 | 1.6 | 0.00 | 0.20 | 0.10 | 83 | 1336.9 |
| 20260505211014 | 10 | 336 | 1.6 | 6.4 | 0.00 | 0.20 | 0.10 | 74 | 1007.1 |
| 20260505211003 | 10 | 336 | 1.6 | 4.8 | 0.00 | 0.20 | 0.10 | 83 | 1336.8 |
| 20260505210503 | 10 | 336 | 1.6 | 6.4 | 0.00 | 0.20 | 0.10 | 83 | 1336.9 |
| 20260505210014 | 10 | 0 | 0.0 | 6.4 | 0.00 | 0.20 | 0.10 | 74 | 1007.0 |
| 20260505210003 | 10 | 336 | 0.0 | 6.4 | 0.00 | 0.20 | 0.10 | 83 | 1336.9 |
| 20260505205503 | 10 | 336 | 0.0 | 4.8 | 0.00 | 0.20 | 0.10 | 83 | 1336.9 |
| 20260505205014 | 10 | 335 | 1.6 | 6.4 | 0.00 | 0.20 | 0.10 | 74 | 1007.1 |
| 20260505205003 | 10 | 335 | 1.6 | 4.8 | 0.00 | 0.20 | 0.10 | 83 | 1336.9 |
| 20260505204513 | 10 | 334 | 1.6 | 6.4 | 0.00 | 0.20 | 0.10 | 74 | 1007.2 |
| 20260505204503 | 10 | 334 | 1.6 | 6.4 | 0.00 | 0.20 | 0.10 | 83 | 1336.9 |
| 20260505204014 | 10 | 332 | 1.6 | 6.4 | 0.00 | 0.20 | 0.10 | 74 | 1007.1 |
| 20260505204003 | 10 | 333 | 1.6 | 8.0 | 0.00 | 0.20 | 0.10 | 83 | 1336.9 |
| 20260505203514 | 10 | 332 | 1.6 | 8.0 | 0.00 | 0.20 | 0.10 | 74 | 1007.1 |
| 20260505203504 | 10 | 332 | 1.6 | 4.8 | 0.00 | 0.20 | 0.10 | 83 | 1336.9 |
| 20260505203013 | 10 | 331 | 1.6 | 8.0 | 0.00 | 0.20 | 0.10 | 74 | 1007.2 |
| 20260505203004 | 10 | 331 | 1.6 | 8.0 | 0.00 | 0.20 | 0.10 | 83 | 1337.0 |
| 20260505202504 | 10 | 330 | 3.2 | 6.4 | 0.00 | 0.20 | 0.10 | 83 | 1337.1 |
| 20260505202014 | 10 | 330 | 4.8 | 12.9 | 0.00 | 0.20 | 0.10 | 73 | 1007.3 |
| 20260505202003 | 10 | 331 | 3.2 | 12.9 | 0.00 | 0.20 | 0.10 | 82 | 1337.1 |
| 20260505201513 | 10 | 331 | 4.8 | 11.3 | 0.00 | 0.20 | 0.10 | 73 | 1007.4 |
| 20260505201504 | 10 | 331 | 3.2 | 8.0 | 0.00 | 0.20 | 0.10 | 82 | 1337.2 |
| 20260505201024 | 10 | 331 | 3.2 | 11.3 | 0.00 | 0.20 | 0.10 | 82 | 1337.3 |
| 20260505201014 | 10 | 331 | 1.6 | 11.3 | 0.00 | 0.20 | 0.10 | 73 | 1007.5 |
| 20260505200513 | 10 | 331 | 1.6 | 6.4 | 0.00 | 0.20 | 0.10 | 73 | 1007.3 |
| 20260505200503 | 10 | 331 | 1.6 | 6.4 | 0.00 | 0.20 | 0.10 | 82 | 1337.2 |
| 20260505200014 | 10 | 331 | 1.6 | 11.3 | 0.00 | 0.20 | 0.10 | 73 | 1007.3 |
| 20260505200004 | 10 | 332 | 1.6 | 6.4 | 0.00 | 0.20 | 0.10 | 82 | 1337.1 |
| 20260505195514 | 10 | 331 | 1.6 | 11.3 | 0.00 | 0.20 | 0.10 | 73 | 1007.5 |
| 20260505195503 | 10 | 332 | 1.6 | 11.3 | 0.03 | 0.20 | 0.10 | 82 | 1337.2 |
| 20260505195014 | 10 | 331 | 1.6 | 8.0 | 0.03 | 0.20 | 0.10 | 73 | 1007.4 |
| 20260505195004 | 10 | 332 | 1.6 | 6.4 | 0.03 | 0.20 | 0.10 | 82 | 1337.2 |
| 20260505194513 | 10 | 331 | 1.6 | 8.0 | 0.05 | 0.20 | 0.10 | 73 | 1007.3 |
| 20260505194503 | 10 | 332 | 1.6 | 8.0 | 0.05 | 0.20 | 0.10 | 82 | 1337.0 |
| 20260505194015 | 10 | 332 | 1.6 | 6.4 | 0.05 | 0.20 | 0.10 | 71 | 1007.2 |
| 20260505194003 | 10 | 332 | 1.6 | 6.4 | 0.05 | 0.20 | 0.10 | 81 | 1336.9 |
| 20260505193514 | 10 | 331 | 1.6 | 6.4 | 0.05 | 0.20 | 0.10 | 71 | 1007.1 |
| 20260505193503 | 10 | 332 | 1.6 | 6.4 | 0.05 | 0.20 | 0.10 | 81 | 1336.9 |
| 20260505193014 | 10 | 335 | 1.6 | 11.3 | 0.05 | 0.20 | 0.10 | 70 | 1007.0 |
| 20260505193003 | 10 | 336 | 3.2 | 6.4 | 0.05 | 0.20 | 0.10 | 80 | 1336.7 |
| 20260505192513 | 10 | 343 | 1.6 | 11.3 | 0.08 | 0.20 | 0.10 | 70 | 1006.9 |
| 20260505192503 | 10 | 343 | 3.2 | 11.3 | 0.08 | 0.20 | 0.10 | 80 | 1336.4 |
| 20260505192003 | 10 | 351 | 1.6 | 8.0 | 0.08 | 0.20 | 0.10 | 80 | 1336.7 |
| 20260505191514 | 10 | 0 | 0.0 | 8.0 | 0.08 | 0.20 | 0.10 | 69 | 1006.9 |
| 20260505191503 | 10 | 352 | 1.6 | 8.0 | 0.08 | 0.20 | 0.10 | 79 | 1336.5 |
| 20260505191014 | 10 | 0 | 0.0 | 8.0 | 0.08 | 0.20 | 0.10 | 69 | 1007.0 |
| 20260505191004 | 10 | 354 | 0.0 | 8.0 | 0.08 | 0.20 | 0.10 | 79 | 1336.7 |
| 20260505190503 | 10 | 360 | 0.0 | 0.0 | 0.10 | 0.20 | 0.10 | 77 | 1336.4 |
| 20260505190014 | 10 | 359 | 1.6 | 6.4 | 0.10 | 0.20 | 0.10 | 66 | 1006.7 |
| 20260505190003 | 11 | 359 | 1.6 | 4.8 | 0.10 | 0.20 | 0.10 | 77 | 1336.4 |
| 20260505185513 | 11 | 355 | 1.6 | 8.0 | 0.08 | 0.18 | 0.08 | 65 | 1006.8 |
| 20260505185503 | 11 | 356 | 1.6 | 6.4 | 0.08 | 0.18 | 0.08 | 75 | 1336.5 |
| 20260505185014 | 11 | 351 | 1.6 | 8.0 | 0.08 | 0.18 | 0.08 | 65 | 1006.9 |
| 20260505185003 | 11 | 351 | 1.6 | 8.0 | 0.08 | 0.18 | 0.08 | 74 | 1336.6 |
| 20260505184514 | 11 | 351 | 1.6 | 6.4 | 0.05 | 0.15 | 0.05 | 62 | 1006.9 |
| 20260505184503 | 11 | 351 | 1.6 | 6.4 | 0.05 | 0.15 | 0.05 | 73 | 1336.6 |
| 20260505184014 | 11 | 0 | 0.0 | 6.4 | 0.05 | 0.15 | 0.05 | 62 | 1006.8 |
| 20260505184003 | 11 | 351 | 1.6 | 6.4 | 0.05 | 0.15 | 0.05 | 73 | 1336.5 |
| 20260505183513 | 11 | 0 | 0.0 | 4.8 | 0.05 | 0.15 | 0.05 | 61 | 1006.9 |
| 20260505183503 | 11 | 351 | 0.0 | 4.8 | 0.05 | 0.15 | 0.05 | 72 | 1336.6 |
| 20260505183014 | 11 | 0 | 0.0 | 1.6 | 0.05 | 0.15 | 0.05 | 59 | 1006.7 |
| 20260505183003 | 11 | 351 | 0.0 | 1.6 | 0.05 | 0.15 | 0.05 | 71 | 1336.4 |
| 20260505182513 | 11 | 0 | 0.0 | 4.8 | 0.03 | 0.13 | 0.03 | 59 | 1006.7 |
| 20260505182503 | 12 | 351 | 0.0 | 1.6 | 0.03 | 0.13 | 0.03 | 71 | 1336.5 |
| 20260505182014 | 12 | 350 | 1.6 | 4.8 | 0.03 | 0.13 | 0.03 | 58 | 1006.7 |
| 20260505182003 | 12 | 351 | 1.6 | 4.8 | 0.03 | 0.13 | 0.03 | 70 | 1336.4 |
| 20260505181524 | 12 | 351 | 1.6 | 6.4 | 0.03 | 0.13 | 0.03 | 70 | 1336.6 |
| 20260505181513 | 12 | 351 | 1.6 | 6.4 | 0.03 | 0.13 | 0.03 | 58 | 1006.6 |
| 20260505181014 | 12 | 350 | 1.6 | 6.4 | 0.03 | 0.13 | 0.03 | 58 | 1006.6 |
| 20260505181003 | 12 | 351 | 1.6 | 6.4 | 0.03 | 0.13 | 0.03 | 70 | 1336.3 |
| 20260505180514 | 12 | 350 | 1.6 | 6.4 | 0.00 | 0.10 | 0.00 | 57 | 1006.5 |
| 20260505180503 | 12 | 351 | 1.6 | 4.8 | 0.00 | 0.10 | 0.00 | 69 | 1336.2 |
| 20260505180014 | 12 | 349 | 1.6 | 8.0 | 0.00 | 0.10 | 0.00 | 57 | 1006.6 |
| 20260505180004 | 12 | 350 | 1.6 | 6.4 | 0.00 | 0.10 | 0.00 | 69 | 1336.2 |
| 20260505175524 | 12 | 350 | 3.2 | 11.3 | 0.00 | 0.10 | 0.00 | 69 | 1336.0 |
| 20260505175514 | 12 | 349 | 1.6 | 8.0 | 0.00 | 0.10 | 0.00 | 57 | 1006.5 |
| 20260505175014 | 12 | 348 | 1.6 | 11.3 | 0.00 | 0.10 | 0.00 | 55 | 1006.1 |
| 20260505175003 | 12 | 348 | 3.2 | 8.0 | 0.00 | 0.10 | 0.00 | 68 | 1336.1 |
| 20260505174513 | 12 | 340 | 1.6 | 12.9 | 0.00 | 0.10 | 0.00 | 54 | 1006.1 |
| 20260505174503 | 13 | 340 | 3.2 | 11.3 | 0.00 | 0.10 | 0.00 | 67 | 1335.6 |
| 20260505174003 | 13 | 331 | 3.2 | 12.9 | 0.00 | 0.10 | 0.00 | 67 | 1336.2 |
| 20260505173513 | 13 | 334 | 4.8 | 12.9 | 0.00 | 0.10 | 0.00 | 51 | 1006.4 |
| 20260505173503 | 13 | 332 | 4.8 | 12.9 | 0.00 | 0.10 | 0.00 | 64 | 1335.9 |
| 20260505173014 | 13 | 351 | 4.8 | 14.5 | 0.00 | 0.10 | 0.00 | 50 | 1006.5 |
| 20260505173003 | 13 | 350 | 4.8 | 11.3 | 0.00 | 0.10 | 0.00 | 63 | 1336.2 |
| 20260505172514 | 13 | 1 | 6.4 | 14.5 | 0.00 | 0.10 | 0.00 | 49 | 1006.4 |
| 20260505172504 | 13 | 360 | 6.4 | 17.7 | 0.00 | 0.10 | 0.00 | 62 | 1336.0 |
| 20260505172013 | 13 | 1 | 4.8 | 12.9 | 0.00 | 0.10 | 0.00 | 50 | 1006.3 |
| 20260505172004 | 13 | 360 | 4.8 | 17.7 | 0.00 | 0.10 | 0.00 | 63 | 1335.9 |
| 20260505171514 | 13 | 1 | 4.8 | 12.9 | 0.00 | 0.10 | 0.00 | 50 | 1006.2 |
| 20260505171503 | 13 | 360 | 4.8 | 11.3 | 0.00 | 0.10 | 0.00 | 63 | 1335.8 |
| 20260505171014 | 13 | 1 | 4.8 | 12.9 | 0.00 | 0.10 | 0.00 | 50 | 1005.9 |
| 20260505171004 | 13 | 360 | 4.8 | 12.9 | 0.00 | 0.10 | 0.00 | 63 | 1335.4 |
| 20260505170524 | 13 | 360 | 4.8 | 11.3 | 0.00 | 0.10 | 0.00 | 64 | 1335.1 |
| 20260505170514 | 13 | 1 | 4.8 | 11.3 | 0.00 | 0.10 | 0.00 | 51 | 1005.7 |
| 20260505170015 | 13 | 1 | 6.4 | 11.3 | 0.00 | 0.10 | 0.00 | 50 | 1005.7 |
| 20260505170003 | 13 | 360 | 6.4 | 11.3 | 0.00 | 0.10 | 0.00 | 63 | 1335.1 |
| 20260505165514 | 13 | 1 | 6.4 | 14.5 | 0.00 | 0.10 | 0.00 | 51 | 1005.7 |
| 20260505165503 | 13 | 360 | 6.4 | 17.7 | 0.00 | 0.10 | 0.00 | 64 | 1335.0 |
| 20260505165013 | 13 | 353 | 6.4 | 14.5 | 0.00 | 0.10 | 0.00 | 51 | 1005.8 |
| 20260505165003 | 13 | 354 | 6.4 | 17.7 | 0.00 | 0.10 | 0.00 | 64 | 1335.1 |
| 20260505164514 | 13 | 352 | 4.8 | 12.9 | 0.00 | 0.10 | 0.00 | 51 | 1005.5 |
| 20260505164503 | 13 | 351 | 4.8 | 12.9 | 0.00 | 0.10 | 0.00 | 64 | 1334.8 |
| 20260505164026 | 13 | 359 | 4.8 | 11.3 | 0.00 | 0.10 | 0.00 | 66 | 1334.7 |
| 20260505164014 | 13 | 359 | 4.8 | 12.9 | 0.00 | 0.10 | 0.00 | 53 | 1005.5 |
| 20260505163513 | 13 | 338 | 4.8 | 14.5 | 0.00 | 0.10 | 0.00 | 53 | 1005.6 |
| 20260505163505 | 13 | 339 | 4.8 | 14.5 | 0.00 | 0.10 | 0.00 | 66 | 1335.0 |
| 20260505163026 | 13 | 328 | 4.8 | 17.7 | 0.00 | 0.10 | 0.00 | 67 | 1334.8 |
| 20260505162526 | 13 | 332 | 3.2 | 12.9 | 0.00 | 0.10 | 0.00 | 67 | 1334.8 |
| 20260505162514 | 13 | 333 | 1.6 | 12.9 | 0.00 | 0.10 | 0.00 | 54 | 1005.4 |
| 20260505162013 | 13 | 357 | 1.6 | 8.0 | 0.00 | 0.10 | 0.00 | 54 | 1005.3 |
| 20260505162005 | 13 | 358 | 1.6 | 1.6 | 0.00 | 0.10 | 0.00 | 67 | 1334.6 |
| 20260505161514 | 13 | 1 | 1.6 | 8.0 | 0.00 | 0.10 | 0.00 | 54 | 1005.3 |
| 20260505161505 | 13 | 360 | 3.2 | 8.0 | 0.00 | 0.10 | 0.00 | 67 | 1334.5 |
| 20260505161014 | 13 | 1 | 4.8 | 14.5 | 0.00 | 0.10 | 0.00 | 55 | 1005.5 |
| 20260505161005 | 13 | 360 | 4.8 | 8.0 | 0.00 | 0.10 | 0.00 | 68 | 1334.8 |
| 20260505160526 | 14 | 360 | 6.4 | 17.7 | 0.00 | 0.10 | 0.00 | 68 | 1334.9 |
| 20260505160513 | 13 | 1 | 6.4 | 14.5 | 0.00 | 0.10 | 0.00 | 55 | 1005.5 |
| 20260505153026 | 13 | 360 | 8.0 | 20.9 | 0.00 | 0.10 | 0.00 | 67 | 1334.9 |
| 20260505153013 | 13 | 1 | 8.0 | 20.9 | 0.00 | 0.10 | 0.00 | 54 | 1005.7 |
| 20260505152514 | 13 | 1 | 6.4 | 19.3 | 0.00 | 0.10 | 0.00 | 55 | 1005.8 |
| 20260505152505 | 14 | 360 | 6.4 | 19.3 | 0.00 | 0.10 | 0.00 | 67 | 1335.1 |
| 20260505152013 | 14 | 1 | 6.4 | 14.5 | 0.00 | 0.10 | 0.00 | 55 | 1005.6 |
| 20260505152005 | 14 | 360 | 6.4 | 20.9 | 0.00 | 0.10 | 0.00 | 68 | 1334.8 |
| 20260505151513 | 14 | 349 | 6.4 | 17.7 | 0.00 | 0.10 | 0.00 | 54 | 1005.6 |
| 20260505151506 | 14 | 350 | 6.4 | 17.7 | 0.00 | 0.10 | 0.00 | 67 | 1334.9 |
| 20260505151015 | 14 | 333 | 6.4 | 19.3 | 0.00 | 0.10 | 0.00 | 54 | 1005.4 |
| 20260505151005 | 14 | 335 | 8.0 | 19.3 | 0.00 | 0.10 | 0.00 | 67 | 1334.8 |
| 20260505150526 | 15 | 329 | 6.4 | 20.9 | 0.00 | 0.10 | 0.00 | 67 | 1334.3 |
| 20260505150513 | 15 | 328 | 6.4 | 19.3 | 0.00 | 0.10 | 0.00 | 54 | 1005.1 |
| 20260505140513 | 13 | 2 | 6.4 | 12.9 | 0.00 | 0.10 | 0.00 | 61 | 1004.0 |
| 20260505140505 | 13 | 360 | 6.4 | 12.9 | 0.00 | 0.10 | 0.00 | 72 | 1332.9 |
| 20260505125013 | 9 | 357 | 4.8 | 11.3 | 0.00 | 0.10 | 0.00 | 71 | 1003.3 |
| 20260505125005 | 10 | 358 | 4.8 | 8.0 | 0.00 | 0.10 | 0.00 | 81 | 1331.8 |
| 20260505124526 | 9 | 358 | 4.8 | 11.3 | 0.00 | 0.10 | 0.00 | 81 | 1331.9 |
| 20260505124514 | 9 | 357 | 6.4 | 11.3 | 0.00 | 0.10 | 0.00 | 71 | 1003.3 |
| 20260505124013 | 9 | 350 | 6.4 | 14.5 | 0.00 | 0.10 | 0.00 | 71 | 1003.2 |
| 20260505124005 | 9 | 350 | 6.4 | 17.7 | 0.00 | 0.10 | 0.00 | 81 | 1331.6 |
| 20260505123504 | 9 | 339 | 6.4 | 17.7 | 0.00 | 0.10 | 0.00 | 81 | 1331.6 |
| 20260505123014 | 9 | 344 | 4.8 | 12.9 | 0.00 | 0.10 | 0.00 | 71 | 1002.9 |
| 20260505123005 | 9 | 345 | 4.8 | 12.9 | 0.00 | 0.10 | 0.00 | 81 | 1331.4 |
| 20260505122514 | 9 | 1 | 6.4 | 14.5 | 0.00 | 0.10 | 0.00 | 71 | 1002.6 |
| 20260505122505 | 9 | 360 | 6.4 | 12.9 | 0.00 | 0.10 | 0.00 | 81 | 1330.9 |
| 20260505122014 | 9 | 1 | 8.0 | 19.3 | 0.00 | 0.10 | 0.00 | 71 | 1002.5 |
| 20260505122004 | 9 | 360 | 8.0 | 17.7 | 0.00 | 0.10 | 0.00 | 81 | 1330.8 |
| 20260505121513 | 10 | 1 | 8.0 | 19.3 | 0.00 | 0.10 | 0.00 | 71 | 1002.4 |
| 20260505121505 | 10 | 360 | 8.0 | 24.1 | 0.00 | 0.10 | 0.00 | 81 | 1330.8 |
| 20260505121014 | 10 | 358 | 6.4 | 14.5 | 0.00 | 0.10 | 0.00 | 70 | 1002.4 |
| 20260505121005 | 10 | 358 | 8.0 | 17.7 | 0.00 | 0.10 | 0.00 | 80 | 1330.8 |
| 20260505120513 | 10 | 358 | 8.0 | 24.1 | 0.00 | 0.10 | 0.00 | 70 | 1002.2 |
| 20260505120505 | 10 | 359 | 9.7 | 17.7 | 0.00 | 0.10 | 0.00 | 79 | 1330.4 |
| 20260505120005 | 11 | 360 | 9.7 | 24.1 | 0.00 | 0.10 | 0.00 | 79 | 1330.6 |
| 20260505115513 | 11 | 357 | 8.0 | 19.3 | 0.00 | 0.10 | 0.00 | 69 | 1002.3 |
| 20260505115505 | 11 | 357 | 8.0 | 20.9 | 0.00 | 0.10 | 0.00 | 79 | 1330.5 |
| 20260505115013 | 12 | 348 | 8.0 | 19.3 | 0.00 | 0.10 | 0.00 | 69 | 1002.0 |
| 20260505115005 | 12 | 350 | 6.4 | 19.3 | 0.00 | 0.10 | 0.00 | 79 | 1330.1 |
| 20260505114513 | 12 | 347 | 6.4 | 19.3 | 0.00 | 0.10 | 0.00 | 69 | 1001.6 |
| 20260505114504 | 13 | 351 | 6.4 | 17.7 | 0.00 | 0.10 | 0.00 | 79 | 1329.5 |
| 20260505114013 | 13 | 348 | 6.4 | 19.3 | 0.00 | 0.10 | 0.00 | 70 | 1001.4 |
| 20260505114004 | 13 | 350 | 4.8 | 19.3 | 0.00 | 0.10 | 0.00 | 80 | 1329.3 |
| 20260505113504 | 14 | 345 | 4.8 | 14.5 | 0.00 | 0.10 | 0.00 | 81 | 1328.9 |
| 20260505113014 | 14 | 351 | 8.0 | 20.9 | 0.00 | 0.10 | 0.00 | 73 | 1001.0 |
| 20260505113005 | 14 | 354 | 8.0 | 17.7 | 0.00 | 0.10 | 0.00 | 82 | 1328.7 |
| 20260505112513 | 14 | 357 | 12.9 | 37.0 | 0.00 | 0.10 | 0.00 | 73 | 1000.9 |
| 20260505112504 | 14 | 359 | 12.9 | 25.7 | 0.00 | 0.10 | 0.00 | 82 | 1328.5 |
| 20260505112013 | 14 | 1 | 8.0 | 37.0 | 0.00 | 0.10 | 0.00 | 73 | 1001.0 |
| 20260505112005 | 14 | 360 | 9.7 | 37.0 | 0.00 | 0.10 | 0.00 | 82 | 1328.6 |
| 20260505111513 | 14 | 359 | 6.4 | 32.2 | 0.00 | 0.10 | 0.00 | 73 | 1000.8 |
| 20260505111505 | 14 | 360 | 6.4 | 17.7 | 0.00 | 0.10 | 0.00 | 82 | 1328.4 |
| 20260505111014 | 14 | 355 | 8.0 | 32.2 | 0.00 | 0.10 | 0.00 | 73 | 1000.8 |
| 20260505111004 | 14 | 357 | 9.7 | 32.2 | 0.00 | 0.10 | 0.00 | 82 | 1328.4 |
| 20260505110504 | 14 | 338 | 6.4 | 24.1 | 0.00 | 0.10 | 0.00 | 82 | 1328.2 |
| 20260505102013 | 15 | 332 | 6.4 | 20.9 | 0.00 | 0.10 | 0.00 | 71 | 1000.3 |
| 20260505102004 | 15 | 330 | 6.4 | 20.9 | 0.00 | 0.10 | 0.00 | 81 | 1327.8 |
| 20260505101513 | 15 | 346 | 6.4 | 20.9 | 0.00 | 0.10 | 0.00 | 71 | 1000.4 |
| 20260505101504 | 15 | 348 | 6.4 | 24.1 | 0.00 | 0.10 | 0.00 | 81 | 1327.8 |
| 20260505101014 | 15 | 359 | 6.4 | 25.7 | 0.00 | 0.10 | 0.00 | 71 | 1000.4 |
| 20260505101004 | 15 | 359 | 6.4 | 11.3 | 0.00 | 0.10 | 0.00 | 81 | 1327.8 |
| 20260505100513 | 15 | 355 | 6.4 | 25.7 | 0.00 | 0.10 | 0.00 | 71 | 1000.4 |
| 20260505100504 | 15 | 355 | 6.4 | 25.7 | 0.00 | 0.10 | 0.00 | 81 | 1327.9 |
| 20260505100004 | 15 | 339 | 6.4 | 19.3 | 0.00 | 0.10 | 0.00 | 81 | 1327.9 |
| 20260505095513 | 15 | 324 | 6.4 | 24.1 | 0.00 | 0.10 | 0.00 | 71 | 1000.2 |
| 20260505095505 | 15 | 324 | 6.4 | 19.3 | 0.00 | 0.10 | 0.00 | 81 | 1327.8 |
| 20260505095014 | 15 | 308 | 6.4 | 24.1 | 0.00 | 0.10 | 0.00 | 71 | 1000.2 |
| 20260505095004 | 15 | 310 | 8.0 | 25.7 | 0.00 | 0.10 | 0.00 | 81 | 1327.6 |
| 20260505094526 | 15 | 295 | 8.0 | 20.9 | 0.00 | 0.10 | 0.00 | 81 | 1327.6 |
| 20260505094513 | 15 | 288 | 6.4 | 19.3 | 0.00 | 0.10 | 0.00 | 71 | 1000.1 |
| 20260505094013 | 15 | 301 | 6.4 | 19.3 | 0.00 | 0.10 | 0.00 | 71 | 1000.1 |
| 20260505094005 | 15 | 312 | 6.4 | 17.7 | 0.00 | 0.10 | 0.00 | 81 | 1327.6 |
| 20260505093525 | 15 | 344 | 4.8 | 17.7 | 0.00 | 0.10 | 0.00 | 80 | 1327.5 |
| 20260505093513 | 15 | 343 | 4.8 | 19.3 | 0.00 | 0.10 | 0.00 | 70 | 1000.1 |
| 20260505093013 | 15 | 356 | 4.8 | 19.3 | 0.00 | 0.10 | 0.00 | 70 | 1000.0 |
| 20260505093004 | 15 | 356 | 4.8 | 19.3 | 0.00 | 0.10 | 0.00 | 80 | 1327.5 |
| 20260505092513 | 15 | 341 | 6.4 | 12.9 | 0.00 | 0.10 | 0.00 | 70 | 999.9 |
| 20260505092504 | 15 | 343 | 4.8 | 14.5 | 0.00 | 0.10 | 0.00 | 80 | 1327.4 |
| 20260505092026 | 15 | 339 | 4.8 | 14.5 | 0.00 | 0.10 | 0.00 | 80 | 1327.1 |
| 20260505092013 | 15 | 339 | 6.4 | 24.1 | 0.00 | 0.10 | 0.00 | 70 | 999.7 |
| 20260505091525 | 15 | 332 | 6.4 | 24.1 | 0.00 | 0.10 | 0.00 | 80 | 1327.1 |
| 20260505091005 | 15 | 326 | 6.4 | 24.1 | 0.00 | 0.10 | 0.00 | 79 | 1327.1 |
| 20260505090514 | 15 | 341 | 4.8 | 19.3 | 0.00 | 0.10 | 0.00 | 69 | 999.6 |
| 20260505090504 | 15 | 342 | 4.8 | 19.3 | 0.00 | 0.10 | 0.00 | 79 | 1326.8 |
| 20260505090013 | 15 | 354 | 4.8 | 19.3 | 0.00 | 0.10 | 0.00 | 69 | 999.6 |
| 20260505090005 | 15 | 352 | 4.8 | 19.3 | 0.00 | 0.10 | 0.00 | 79 | 1327.0 |
| 20260505085513 | 15 | 332 | 4.8 | 20.9 | 0.00 | 0.10 | 0.00 | 69 | 999.5 |
| 20260505085504 | 15 | 333 | 3.2 | 12.9 | 0.00 | 0.10 | 0.00 | 79 | 1326.8 |
| 20260505085025 | 15 | 282 | 4.8 | 20.9 | 0.00 | 0.10 | 0.00 | 79 | 1326.8 |
| 20260505085013 | 15 | 279 | 4.8 | 20.9 | 0.00 | 0.10 | 0.00 | 69 | 999.6 |
| 20260505084526 | 15 | 279 | 6.4 | 20.9 | 0.00 | 0.10 | 0.00 | 79 | 1326.8 |
| 20260505084514 | 15 | 279 | 6.4 | 20.9 | 0.00 | 0.10 | 0.00 | 69 | 999.5 |
| 20260505084013 | 15 | 290 | 4.8 | 12.9 | 0.00 | 0.10 | 0.00 | 69 | 999.4 |
| 20260505084004 | 15 | 289 | 4.8 | 14.5 | 0.00 | 0.10 | 0.00 | 79 | 1326.5 |
| 20260505083525 | 15 | 289 | 4.8 | 14.5 | 0.00 | 0.10 | 0.00 | 79 | 1326.5 |
| 20260505083513 | 15 | 290 | 4.8 | 12.9 | 0.00 | 0.10 | 0.00 | 69 | 999.4 |
| 20260505083014 | 15 | 298 | 4.8 | 17.7 | 0.00 | 0.10 | 0.00 | 69 | 999.2 |
| 20260505083005 | 15 | 298 | 3.2 | 6.4 | 0.00 | 0.10 | 0.00 | 79 | 1326.5 |
| 20260505082513 | 15 | 305 | 4.8 | 17.7 | 0.00 | 0.10 | 0.00 | 67 | 999.1 |
| 20260505082504 | 16 | 306 | 4.8 | 19.3 | 0.00 | 0.10 | 0.00 | 78 | 1326.2 |
| 20260505082025 | 16 | 296 | 3.2 | 11.3 | 0.00 | 0.10 | 0.00 | 78 | 1326.1 |
| 20260505082013 | 15 | 296 | 4.8 | 11.3 | 0.00 | 0.10 | 0.00 | 67 | 999.1 |
| 20260505081513 | 16 | 300 | 4.8 | 12.9 | 0.00 | 0.10 | 0.00 | 67 | 999.0 |
| 20260505081505 | 16 | 297 | 4.8 | 14.5 | 0.00 | 0.10 | 0.00 | 78 | 1326.3 |
| 20260505081014 | 16 | 292 | 6.4 | 14.5 | 0.00 | 0.10 | 0.00 | 67 | 999.0 |
| 20260505081004 | 16 | 291 | 6.4 | 17.7 | 0.00 | 0.10 | 0.00 | 77 | 1326.0 |
| 20260505080513 | 16 | 289 | 8.0 | 32.2 | 0.00 | 0.10 | 0.00 | 67 | 998.8 |
| 20260505080504 | 16 | 287 | 8.0 | 17.7 | 0.00 | 0.10 | 0.00 | 78 | 1325.9 |
| 20260505080014 | 16 | 304 | 6.4 | 32.2 | 0.00 | 0.10 | 0.00 | 67 | 998.9 |
| 20260505080004 | 16 | 305 | 6.4 | 32.2 | 0.00 | 0.10 | 0.00 | 78 | 1326.0 |
| 20260505075513 | 16 | 327 | 6.4 | 24.1 | 0.00 | 0.10 | 0.00 | 67 | 999.0 |
| 20260505075504 | 16 | 332 | 6.4 | 24.1 | 0.00 | 0.10 | 0.00 | 77 | 1326.3 |
| 20260505075004 | 16 | 352 | 6.4 | 14.5 | 0.00 | 0.10 | 0.00 | 77 | 1326.0 |
| 20260505074513 | 16 | 356 | 4.8 | 30.6 | 0.00 | 0.10 | 0.00 | 67 | 998.8 |
| 20260505074504 | 16 | 354 | 6.4 | 30.6 | 0.00 | 0.10 | 0.00 | 78 | 1325.9 |
| 20260505074014 | 16 | 355 | 4.8 | 19.3 | 0.00 | 0.10 | 0.00 | 67 | 998.9 |
| 20260505074005 | 16 | 355 | 4.8 | 12.9 | 0.00 | 0.10 | 0.00 | 77 | 1326.0 |
| 20260505073513 | 16 | 358 | 6.4 | 19.3 | 0.00 | 0.10 | 0.00 | 66 | 998.9 |
| 20260505073504 | 16 | 358 | 4.8 | 24.1 | 0.00 | 0.10 | 0.00 | 77 | 1326.0 |
| 20260505073013 | 16 | 342 | 6.4 | 20.9 | 0.00 | 0.10 | 0.00 | 66 | 999.0 |
| 20260505073004 | 16 | 341 | 6.4 | 17.7 | 0.00 | 0.10 | 0.00 | 77 | 1326.1 |
| 20260505072512 | 16 | 280 | 4.8 | 20.9 | 0.00 | 0.10 | 0.00 | 66 | 998.8 |
| 20260505072504 | 16 | 271 | 4.8 | 19.3 | 0.00 | 0.10 | 0.00 | 77 | 1326.0 |
| 20260505072013 | 16 | 250 | 4.8 | 12.9 | 0.00 | 0.10 | 0.00 | 65 | 998.8 |
| 20260505072004 | 16 | 245 | 3.2 | 11.3 | 0.00 | 0.10 | 0.00 | 75 | 1325.9 |
| 20260505071512 | 16 | 298 | 4.8 | 14.5 | 0.00 | 0.10 | 0.00 | 65 | 998.9 |
| 20260505071504 | 16 | 290 | 3.2 | 14.5 | 0.00 | 0.10 | 0.00 | 75 | 1326.1 |
| 20260505071013 | 16 | 325 | 4.8 | 14.5 | 0.00 | 0.10 | 0.00 | 65 | 998.9 |
| 20260505071004 | 16 | 326 | 3.2 | 17.7 | 0.00 | 0.10 | 0.00 | 75 | 1326.0 |
| 20260505070513 | 16 | 337 | 4.8 | 12.9 | 0.00 | 0.10 | 0.00 | 65 | 998.9 |
| 20260505070504 | 16 | 337 | 4.8 | 14.5 | 0.00 | 0.10 | 0.00 | 74 | 1326.1 |
| 20260505070005 | 16 | 296 | 4.8 | 12.9 | 0.00 | 0.10 | 0.00 | 74 | 1326.2 |
| 20260505065513 | 16 | 305 | 6.4 | 20.9 | 0.00 | 0.10 | 0.00 | 63 | 999.1 |
| 20260505065504 | 16 | 308 | 6.4 | 19.3 | 0.00 | 0.10 | 0.00 | 74 | 1326.3 |
| 20260505065013 | 16 | 341 | 6.4 | 20.9 | 0.00 | 0.10 | 0.00 | 63 | 999.0 |
| 20260505065004 | 16 | 344 | 6.4 | 24.1 | 0.00 | 0.10 | 0.00 | 74 | 1326.1 |
| 20260505064525 | 16 | 347 | 6.4 | 12.9 | 0.00 | 0.10 | 0.00 | 74 | 1326.1 |
| 20260505064513 | 16 | 345 | 6.4 | 14.5 | 0.00 | 0.10 | 0.00 | 63 | 999.0 |
| 20260505064004 | 16 | 342 | 6.4 | 17.7 | 0.00 | 0.10 | 0.00 | 74 | 1326.3 |
| 20260505063513 | 16 | 346 | 6.4 | 25.7 | 0.00 | 0.10 | 0.00 | 65 | 999.3 |
| 20260505063504 | 16 | 345 | 6.4 | 20.9 | 0.00 | 0.10 | 0.00 | 75 | 1326.4 |
| 20260505063013 | 16 | 350 | 8.0 | 25.7 | 0.00 | 0.10 | 0.00 | 65 | 999.3 |
| 20260505063004 | 16 | 347 | 6.4 | 27.4 | 0.00 | 0.10 | 0.00 | 75 | 1326.6 |
| 20260505062505 | 16 | 351 | 8.0 | 19.3 | 0.00 | 0.10 | 0.00 | 75 | 1326.8 |
| 20260505062014 | 16 | 358 | 6.4 | 27.4 | 0.00 | 0.10 | 0.00 | 66 | 999.5 |
| 20260505062004 | 16 | 358 | 6.4 | 24.1 | 0.00 | 0.10 | 0.00 | 77 | 1326.9 |
| 20260505061513 | 16 | 1 | 6.4 | 27.4 | 0.00 | 0.10 | 0.00 | 66 | 999.5 |
| 20260505061504 | 16 | 360 | 6.4 | 27.4 | 0.00 | 0.10 | 0.00 | 77 | 1326.9 |
| 20260505061013 | 16 | 1 | 6.4 | 20.9 | 0.00 | 0.10 | 0.00 | 66 | 999.6 |
| 20260505061004 | 16 | 360 | 6.4 | 25.7 | 0.00 | 0.10 | 0.00 | 77 | 1326.9 |
| 20260505060512 | 16 | 1 | 6.4 | 14.5 | 0.00 | 0.10 | 0.00 | 66 | 999.6 |
| 20260505060504 | 16 | 360 | 6.4 | 20.9 | 0.00 | 0.10 | 0.00 | 77 | 1327.0 |
| 20260505060013 | 16 | 359 | 4.8 | 14.5 | 0.00 | 0.10 | 0.00 | 67 | 999.6 |
| 20260505060004 | 16 | 359 | 4.8 | 17.7 | 0.00 | 0.10 | 0.00 | 77 | 1327.2 |
| 20260505055504 | 16 | 314 | 4.8 | 17.7 | 0.00 | 0.10 | 0.00 | 77 | 1327.1 |
| 20260505055026 | 16 | 243 | 6.4 | 14.5 | 0.00 | 0.10 | 0.00 | 78 | 1327.2 |
| 20260505055013 | 16 | 255 | 6.4 | 24.1 | 0.00 | 0.10 | 0.00 | 67 | 999.9 |